[[{"header":{"parameterUnit":"m.s-1","parameterCategory":1,"la1":30.2991,"la2":30.254,"lo1":-89.0895,"lo2":-89.0444,"dy":0.0017,"dx":0.0017,"nx":28,"ny":28,"refTime":"2024-04-17T03:00:00:Z","depth":0,"parameterNumber":2,"parameterNumberName":"U-component_of_WINDS"},"data":[0,0,0,0,0,0,0,0,0,0,0,0,0,0,0,0,0,0,0,0,0,0,0,0,0,0,0,0,0,0,0,0,0,0,0,0,0,0,0,0,0,0,0,0,0,0,0,0,0,0,0,0,0,0,0,0,0,0,-2.1903,-2.1903,0,-2.1917,-2.1917,-2.1917,-2.1888,-2.1887,-2.1886,-2.1885,-2.1898,-2.1899,-2.1901,0,0,0,0,0,0,0,0,0,0,0,0,0,-2.1853,-2.1854,-2.1903,-2.1903,-2.1904,-2.1917,-2.1917,-2.1917,-2.1888,-2.1887,-2.1886,-2.1885,-2.1898,-2.1899,-2.1901,0,0,0,0,0,0,0,0,0,0,0,0,0,-2.1872,-2.1855,-2.1903,-2.1891,-2.189,-2.1916,-2.1917,-2.1917,-2.1888,-2.1887,-2.1886,-2.1884,-2.1897,-2.1899,-2.1901,-2.194,0,0,-2.1907,-2.1907,0,0,0,0,0,0,0,0,-2.1871,-2.1873,-2.1893,-2.1892,-2.1891,-2.1899,-2.1904,-2.1925,-2.1889,-2.1889,-2.1885,-2.1884,-2.19,-2.1901,-2.1907,-2.1941,-2.1941,-2.1907,-2.1908,-2.1909,-2.1909,0,0,0,0,0,0,0,-2.1869,-2.1873,-2.1909,-2.1893,-2.1892,-2.1885,-2.1886,-2.1908,-2.1902,-2.1889,-2.1887,-2.1889,-2.1899,-2.1905,-2.1907,-2.1941,-2.1907,-2.1908,-2.1909,-2.191,-2.2008,-2.201,0,0,0,0,0,0,-2.187,-2.1872,-2.1908,-2.1909,-2.1877,-2.1887,-2.1888,-2.1898,-2.1902,-2.1901,-2.189,-2.1887,-2.1903,-2.1905,-2.1907,-2.1953,-2.1909,-2.191,-2.1911,-2.2007,-2.2009,-2.201,0,0,0,0,0,0,-2.1869,-2.1873,-2.1908,-2.189,-2.1894,-2.1889,-2.1901,-2.1899,-2.1905,-2.1902,-2.1901,-2.1897,-2.1902,-2.1905,-2.1932,-2.1953,-2.1911,-2.1913,-2.2005,-2.2008,-2.201,-2.2046,0,0,0,0,0,0,-2.1867,-2.1873,-2.1888,-2.189,-2.1895,-2.1932,-2.1902,-2.19,-2.1908,-2.1905,-2.1909,-2.1908,-2.1901,-2.193,-2.1934,-2.1955,-2.1914,-2.2003,-2.2006,-2.2009,-2.2042,-2.2049,-2.2054,0,0,0,0,0,-2.1866,-2.1897,-2.1889,-2.1893,-2.1913,-2.1934,-2.1936,-2.1927,-2.191,-2.1925,-2.1923,-2.1908,-2.195,-2.1933,-2.1937,-2.1959,-2.2002,-2.2005,-2.2009,-2.204,-2.2048,-2.2054,0,0,0,0,0,0,-2.1897,-2.1897,-2.1888,-2.1921,-2.1928,-2.1929,-2.1947,-2.1935,-2.1947,-2.1943,-2.1931,-2.1932,-2.1962,-2.1964,-2.1944,-2.1997,-2.1973,-2.1978,-2.1995,-2.2003,-2.2008,-2.2007,-2.1916,0,0,0,0,0,-2.1908,-2.1924,-2.1924,-2.1953,-2.1957,-2.1952,-2.196,-2.1953,-2.1959,-2.1962,-2.1962,-2.1969,-2.1983,-2.1993,-2.2006,-2.2043,-2.2043,-2.206,-2.2066,-2.2071,-2.2075,-2.2094,-2.2102,-2.2022,-2.2022,-2.2022,0,0,-2.193,-2.1932,-2.1943,-2.196,-2.1964,-2.1981,-2.1954,-2.1974,-2.1987,-2.1964,-2.199,-2.1991,-2.1998,-2.203,-2.2044,-2.2032,-2.2097,-2.2075,-2.2079,-2.208,-2.2098,-2.2106,-2.2113,-2.2024,-2.2024,-2.2023,0,0,-2.1979,-2.1983,-2.2008,-2.2013,-2.202,-2.2016,-2.2022,-2.2025,-2.2025,-2.2051,-2.2035,-2.205,-2.2076,-2.2081,-2.2087,-2.214,-2.2126,-2.2144,-2.2175,-2.2194,-2.22,-2.2206,-2.2224,-2.2231,-2.2148,-2.2149,-2.2149,0,-2.2006,-2.2032,-2.2022,-2.2043,-2.2051,-2.2032,-2.2057,-2.2062,-2.2073,-2.2079,-2.2065,-2.2097,-2.21,-2.2133,-2.2146,-2.2152,-2.2159,-2.2144,-2.22,-2.2205,-2.221,-2.2228,-2.2235,-2.2151,-2.215,-2.215,-2.215,0,-2.2065,-2.2083,-2.2102,-2.2114,-2.2123,-2.2146,-2.214,-2.2151,-2.2143,-2.2141,-2.2168,-2.2171,-2.2185,-2.2193,-2.2185,-2.2225,-2.2217,-2.2202,-2.2177,-2.222,-2.2237,-2.2243,-2.2154,-2.2153,-2.2152,-2.2152,0,0,-2.2133,-2.2139,-2.2147,-2.2151,-2.2158,-2.2172,-2.2194,-2.2208,-2.2218,-2.2226,-2.2245,-2.2267,-2.2253,-2.226,-2.2253,-2.227,-2.2311,-2.2253,-2.2253,-2.2263,-2.2356,-2.2366,-2.2374,-2.2303,-2.2304,-2.2305,-2.2355,0,-2.2182,-2.222,-2.2213,-2.225,-2.2267,-2.225,-2.2269,-2.2275,-2.2274,-2.2288,-2.2287,-2.2303,-2.2284,-2.2288,-2.2304,-2.2303,-2.233,-2.2299,-2.2319,-2.232,-2.2318,-2.2383,-2.2394,-2.2441,-2.2361,-2.2362,-2.2363,0,-2.2244,-2.2255,-2.2294,-2.2298,-2.2305,-2.2323,-2.2335,-2.2349,-2.2356,-2.2354,-2.2362,-2.2352,-2.2374,-2.235,-2.238,-2.236,-2.2368,-2.2368,-2.237,-2.2371,-2.2344,-2.2385,-2.2456,-2.2463,-2.2373,-2.2372,-2.2372,0,-2.229,-2.2314,-2.2341,-2.2346,-2.2352,-2.2364,-2.2367,-2.2373,-2.2382,-2.2393,-2.2398,-2.2411,-2.2419,-2.2429,-2.2423,-2.2406,-2.2454,-2.2429,-2.2453,-2.2453,-2.2463,-2.2463,-2.2536,-2.2469,-2.2469,-2.2469,-2.2469,0,-2.2345,-2.2369,-2.2362,-2.2378,-2.2406,-2.2397,-2.2424,-2.2425,-2.243,-2.2446,-2.2432,-2.2448,-2.2439,-2.2453,-2.2449,-2.2475,-2.2478,-2.2477,-2.2475,-2.2478,-2.2478,-2.2482,-2.2479,-2.2471,-2.2471,-2.247,-2.247,0,-2.24,-2.2396,-2.2424,-2.2427,-2.2429,-2.2449,-2.2451,-2.2467,-2.2465,-2.2486,-2.249,-2.2487,-2.2504,-2.2499,-2.2517,-2.2514,-2.2547,-2.2541,-2.2544,-2.2543,-2.2566,-2.2564,-2.2644,-2.2654,-2.2582,-2.2583,-2.2583,0,-2.2435,-2.2454,-2.2459,-2.2469,-2.2473,-2.249,-2.2499,-2.2491,-2.2501,-2.251,-2.2525,-2.254,-2.2553,-2.258,-2.258,-2.2594,-2.2588,-2.2615,-2.259,-2.2592,-2.2588,-2.2587,-2.2588,-2.262,-2.2621,-2.2622,-2.2622,0,-2.2498,-2.2495,-2.2509,-2.2522,-2.2534,-2.2544,-2.2552,-2.2561,-2.2554,-2.2566,-2.2583,-2.2593,-2.2612,-2.2627,-2.264,-2.2643,-2.2632,-2.263,-2.2636,-2.2639,-2.264,-2.2639,-2.2557,-2.2628,-2.2628,-2.2627,-2.2627,-2.2627,-2.2544,-2.256,-2.2566,-2.2582,-2.2588,-2.2597,-2.2611,-2.2611,-2.2626,-2.264,-2.2635,-2.2655,-2.2661,-2.2677,-2.2682,-2.2697,-2.2687,-2.2696,-2.2698,-2.27,-2.2703,-2.2638,-2.27,-2.27,-2.2699,-2.2699,-2.2699,0,-2.2606,-2.2609,-2.2624,-2.2637,-2.2649,-2.2638,-2.2647,-2.2658,-2.2676,-2.2683,-2.2695,-2.2715,-2.2731,-2.2732,-2.2746,-2.2758,-2.2753,-2.2762,-2.2761,-2.2762,-2.2712,-2.2705,-2.2766,-2.2766,-2.2766,-2.2766,-2.2766,-2.2766,-2.2639,-2.2665,-2.2664,-2.2692,-2.2696,-2.2715,-2.2721,-2.2729,-2.2735,-2.2758,-2.2771,-2.2771,-2.2776,-2.2791,-2.2804,-2.2804,-2.281,-2.2821,-2.2819,-2.2772,-2.2765,-2.2759,-2.2752,-2.2822,-2.2823,-2.2867,-2.2868,-2.2868]},{"header":{"parameterUnit":"m.s-1","parameterCategory":1,"la1":30.2991,"la2":30.254,"lo1":-89.0895,"lo2":-89.0444,"dy":0.0017,"dx":0.0017,"nx":28,"ny":28,"refTime":"2024-04-17T03:00:00:Z","depth":0,"parameterNumber":3,"parameterNumberName":"V-component_of_WINDS"},"data":[0,0,0,0,0,0,0,0,0,0,0,0,0,0,0,0,0,0,0,0,0,0,0,0,0,0,0,0,0,0,0,0,0,0,0,0,0,0,0,0,0,0,0,0,0,0,0,0,0,0,0,0,0,0,0,0,0,0,2.2248,2.2249,0,2.2351,2.2352,2.2353,2.2319,2.2317,2.2314,2.2312,2.2424,2.2428,2.2433,0,0,0,0,0,0,0,0,0,0,0,0,0,2.2029,2.2033,2.2248,2.225,2.2251,2.2351,2.2352,2.2354,2.2319,2.2317,2.2314,2.2311,2.2422,2.2428,2.2434,0,0,0,0,0,0,0,0,0,0,0,0,0,2.2127,2.2035,2.2248,2.2246,2.2246,2.235,2.2352,2.2354,2.232,2.2316,2.2313,2.231,2.242,2.2427,2.2435,2.2549,0,0,2.2458,2.2461,0,0,0,0,0,0,0,0,2.2122,2.2135,2.2245,2.2246,2.2247,2.2318,2.2316,2.242,2.2321,2.2292,2.2312,2.2308,2.2392,2.2401,2.2428,2.2554,2.2559,2.2459,2.2463,2.2466,2.2469,0,0,0,0,0,0,0,2.2115,2.2131,2.2289,2.2246,2.2248,2.2241,2.2252,2.2335,2.236,2.2294,2.2292,2.2304,2.2392,2.2421,2.2431,2.2561,2.2458,2.2465,2.247,2.2473,2.2788,2.2792,0,0,0,0,0,0,2.2107,2.2125,2.2286,2.2292,2.2175,2.2248,2.226,2.2299,2.2359,2.2365,2.2307,2.2302,2.241,2.2422,2.2434,2.2574,2.2466,2.2474,2.2478,2.2785,2.2789,2.2793,0,0,0,0,0,0,2.2102,2.2121,2.2282,2.2208,2.2228,2.2255,2.23,2.2303,2.2332,2.2368,2.2373,2.2332,2.2408,2.2424,2.2521,2.2577,2.2477,2.2484,2.278,2.2786,2.2791,2.2853,0,0,0,0,0,0,2.2096,2.212,2.2162,2.2209,2.2232,2.2365,2.2304,2.2307,2.2344,2.2339,2.2393,2.2399,2.2406,2.251,2.2529,2.2586,2.249,2.2775,2.2783,2.2789,2.2846,2.286,2.2872,0,0,0,0,0,2.2088,2.2177,2.2164,2.2184,2.2285,2.2368,2.2381,2.2386,2.2349,2.2393,2.2417,2.2397,2.2568,2.252,2.2541,2.2601,2.2772,2.2781,2.2789,2.284,2.2858,2.2872,0,0,0,0,0,0,2.2138,2.2183,2.217,2.2275,2.2318,2.2362,2.2417,2.2404,2.2459,2.2452,2.2458,2.247,2.2571,2.2595,2.2542,2.2716,2.2664,2.2678,2.2697,2.2713,2.2726,2.2719,2.2496,0,0,0,0,0,2.216,2.2222,2.2258,2.2348,2.237,2.239,2.2426,2.2426,2.2471,2.249,2.252,2.2567,2.2631,2.2673,2.2734,2.2849,2.2862,2.2901,2.2914,2.2925,2.2937,2.3002,2.3021,2.2822,2.2821,2.2821,0,0,2.2209,2.2241,2.228,2.2359,2.2392,2.2458,2.2406,2.2477,2.2527,2.2501,2.2595,2.2619,2.2671,2.2778,2.2827,2.2802,2.2994,2.2936,2.2944,2.295,2.3013,2.3032,2.3048,2.2827,2.2826,2.2825,0,0,2.2331,2.2361,2.2439,2.2473,2.2523,2.2535,2.2554,2.26,2.2615,2.2708,2.2691,2.2751,2.2861,2.2899,2.2933,2.307,2.3055,2.309,2.3159,2.3222,2.3238,2.3252,2.3303,2.3321,2.3101,2.3101,2.3101,0,2.2386,2.2482,2.2482,2.2555,2.2592,2.2569,2.2651,2.2684,2.2752,2.2779,2.2749,2.2887,2.292,2.3037,2.307,2.3098,2.3122,2.3085,2.3235,2.3249,2.3262,2.3312,2.3331,2.3105,2.3105,2.3105,2.3104,0,2.2548,2.2615,2.2673,2.2737,2.278,2.2857,2.2871,2.2915,2.2911,2.2927,2.3024,2.3063,2.3132,2.3159,2.3157,2.3277,2.326,2.3233,2.3181,2.3285,2.3332,2.335,2.3111,2.311,2.3109,2.3108,0,0,2.2706,2.2768,2.279,2.2819,2.2872,2.2926,2.3002,2.3068,2.3106,2.3154,2.322,2.3313,2.3289,2.3327,2.3329,2.3384,2.3493,2.3351,2.3352,2.3378,2.3631,2.3653,2.3674,2.3482,2.3486,2.3489,2.3627,0,2.2835,2.2967,2.2969,2.3092,2.3155,2.3135,2.3202,2.3243,2.3261,2.3319,2.3339,2.3406,2.3367,2.339,2.3444,2.3468,2.3544,2.3458,2.3548,2.3551,2.3537,2.3698,2.3721,2.385,2.3645,2.3648,2.365,0,2.3002,2.3053,2.3182,2.3226,2.3253,2.3313,2.3374,2.3429,2.3476,2.3485,2.3528,2.3521,2.3602,2.3546,2.366,2.3601,2.3638,2.3655,2.366,2.3671,2.3609,2.3716,2.3891,2.3911,2.3678,2.3676,2.3674,0,2.3108,2.3209,2.3299,2.3324,2.3378,2.3421,2.3446,2.3489,2.3529,2.3583,2.3609,2.3672,2.3708,2.3758,2.377,2.3728,2.3884,2.3829,2.3897,2.3897,2.3933,2.3931,2.4119,2.3952,2.3952,2.3952,2.3951,0,2.3252,2.3333,2.3347,2.3403,2.3493,2.3495,2.3585,2.3606,2.3645,2.3707,2.3693,2.3752,2.3762,2.3824,2.3834,2.3928,2.3944,2.3956,2.3958,2.3958,2.3957,2.3984,2.3977,2.3957,2.3956,2.3955,2.3954,0,2.3386,2.3399,2.3496,2.3538,2.3551,2.3615,2.3653,2.3708,2.3723,2.3801,2.382,2.3845,2.3917,2.3933,2.4019,2.4026,2.4139,2.4131,2.4122,2.4123,2.4191,2.4186,2.4406,2.4436,2.4246,2.4248,2.4249,0,2.3479,2.354,2.3588,2.3627,2.3654,2.3717,2.3757,2.3762,2.3805,2.3863,2.3912,2.3981,2.4038,2.4155,2.4183,2.4249,2.4245,2.4317,2.4255,2.4254,2.4249,2.4247,2.4254,2.433,2.4332,2.4333,2.4335,0,2.3644,2.3646,2.3703,2.3763,2.381,2.3858,2.3903,2.3937,2.3948,2.3998,2.407,2.4114,2.4201,2.4272,2.4338,2.4367,2.4355,2.4354,2.4374,2.4376,2.437,2.4377,2.4158,2.4349,2.4348,2.4347,2.4346,2.4345,2.3762,2.3815,2.3858,2.3922,2.3956,2.3999,2.4053,2.4074,2.4134,2.4204,2.4203,2.4283,2.4331,2.4418,2.445,2.4515,2.4493,2.4521,2.4529,2.4536,2.4544,2.4357,2.4527,2.4526,2.4526,2.4526,2.4525,0,2.3928,2.3954,2.4012,2.4075,2.4127,2.4107,2.4156,2.4201,2.4271,2.4315,2.437,2.4454,2.4523,2.4556,2.4625,2.467,2.4667,2.4689,2.4687,2.4694,2.4558,2.4535,2.469,2.469,2.469,2.469,2.469,2.469,2.4021,2.4111,2.4119,2.4227,2.4253,2.4329,2.436,2.44,2.4435,2.4529,2.4585,2.4605,2.4645,2.4717,2.478,2.4788,2.4816,2.4841,2.4847,2.472,2.4704,2.4688,2.4666,2.4846,2.4847,2.4978,2.4979,2.498]}]]